Terminal Aerodrome Forecast
Issued by NWS Wakefield, VA

Home | Current Version | Previous Version | Text Only | Print | Product List | Glossary On
Versions: 1 2 3 4 5 6 7 8 9 10 11 12 13 14 15 16 17 18 19 20 21 22 23 24
000
FTUS41 KAKQ 051744
TAFRIC
TAF
KRIC 051744Z 0518/0618 09007KT P6SM BKN025
     FM052000 10009KT P6SM VCSH BKN030
     FM060000 12005KT 5SM -RA BR SCT015 OVC050
     FM060900 16004KT 3SM BR OVC005
     FM061400 19006KT P6SM BKN015
     FM061600 19007KT P6SM SCT050=

USA.gov is the U.S. government's official web portal to all federal, state and local government web resources and services.